sat.trackr.live / text

‹ back to catalog

TRANSPORTER-15 OBJECT AA

NORAD 66690 · 2025-276AA

PAYLOAD ACTIVE UNKNOWN

§ Identity

Operator
Country
TBD
Launch date
2025-11-28
Launch site
AFWTR
Launch vehicle
Mass (kg)
RCS (m²)

External: N2YO · Heavens-Above · Gunter

§ Orbital elements

Epoch: 2026-05-25T03:43:29.319744Z

Period
94.81 min
Inclination
97.4187°
Eccentricity
0.0006399
Mean motion
15.18812246 rev/d
Perigee alt
505.0 km
Apogee alt
513.8 km
Semi-major
6,887.6 km
B*
2.1213e-4
RAAN
218.9077°
Arg perigee
84.9138°
Mean anomaly
275.2827°
Rev number
2,691

§ Raw data

TRANSPORTER-15 OBJECT AA1 66690U 25276AA  26145.15520046  .00004349  00000+0  21213-3 0  99912 66690  97.4187 218.9077 0006399  84.9138 275.2827 15.18812246 26918

JSON: /api/v1/satellites/66690 · /tle

For live sub-satellite position, see the globe view (requires WebGL).

§ Visibility from observer

Set your observer location to see the next 7 days of passes ≥ 10°. The values pass through the URL so the page stays shareable.

No JS? Fill the form by hand. The geolocation button needs JavaScript.